BG5HLN-13 Weather Reports


time (UTC)temp
C
wind
direction
speed
KPH
gust
KPH
rain 1hr
cm
rain 24hr
cm
rain mn
cm
humidity
%
barometer
mb
20260505101259 24 0 0.0 0.0 0.00 0.00 0.00 73 1011.0
20260505101257 24 0 0.0 0.0 0.00 0.00 0.00 73 1011.0
20260505100259 24 0 0.0 0.0 0.00 0.00 0.00 73 1011.0
20260505095258 25 0 0.0 0.0 0.00 0.00 0.00 72 1011.1
20260505094257 25 0 0.0 0.0 0.00 0.00 0.00 72 1011.1
20260505093258 25 0 0.0 0.0 0.00 0.00 0.00 71 1011.1
20260505092258 25 0 0.0 0.0 0.00 0.00 0.00 70 1011.2
20260505091256 25 0 0.0 0.0 0.00 0.00 0.00 69 1011.3
20260505090258 25 0 0.0 0.0 0.00 0.00 0.00 69 1011.3
20260505085258 25 0 0.0 0.0 0.00 0.00 0.00 68 1011.4
20260505084257 25 0 0.0 0.0 0.00 0.00 0.00 67 1011.4
20260505083258 26 0 0.0 0.0 0.00 0.00 0.00 67 1011.5
20260505082257 26 0 0.0 0.0 0.00 0.00 0.00 66 1011.6
20260505081258 26 0 0.0 0.0 0.00 0.00 0.00 65 1011.8
20260505081256 26 0 0.0 0.0 0.00 0.00 0.00 65 1011.7
20260505080258 26 0 0.0 0.0 0.00 0.00 0.00 64 1011.9
20260505075257 26 0 0.0 0.0 0.00 0.00 0.00 63 1011.9
20260505074256 26 0 0.0 0.0 0.00 0.00 0.00 62 1011.9
20260505073256 27 0 0.0 0.0 0.00 0.00 0.00 61 1012.0
20260505072256 27 0 0.0 0.0 0.00 0.00 0.00 58 1012.1
20260505071256 27 0 0.0 0.0 0.00 0.00 0.00 58 1012.2
20260505070253 27 0 0.0 0.0 0.00 0.00 0.00 56 1012.3
20260505065254 27 0 0.0 0.0 0.00 0.00 0.00 55 1012.4
20260505064029 28 0 0.0 0.0 0.00 0.00 0.00 55 1012.6
20260505063641 28 0 0.0 0.0 0.00 0.00 0.00 56 1012.6
20260505062641 28 0 0.0 0.0 0.00 0.00 0.00 58 1012.7
20260505061641 28 0 0.0 0.0 0.00 0.00 0.00 59 1012.8
20260505061301 28 0 0.0 0.0 0.00 0.00 0.00 59 1012.9
20260505060641 28 0 0.0 0.0 0.00 0.00 0.00 57 1012.9
20260505055642 28 0 0.0 0.0 0.00 0.00 0.00 59 1013.1
20260505054641 28 0 0.0 0.0 0.00 0.00 0.00 60 1013.2
20260505053941 28 0 0.0 0.0 0.00 0.00 0.00 59 1013.3
20260505053641 28 0 0.0 0.0 0.00 0.00 0.00 59 1013.4
20260505052642 28 0 0.0 0.0 0.00 0.00 0.00 59 1013.5
20260505051641 28 0 0.0 0.0 0.00 0.00 0.00 59 1013.7
20260505050941 28 0 0.0 0.0 0.00 0.00 0.00 59 1013.8
20260505050642 28 0 0.0 0.0 0.00 0.00 0.00 60 1013.8
20260505041641 27 0 0.0 0.0 0.00 0.00 0.00 55 1014.3
20260505040940 27 315 0.0 0.0 0.00 0.00 0.00 55 1014.4
20260505040641 27 0 0.0 0.0 0.00 0.00 0.00 56 1014.4
20260505035641 27 0 0.0 0.0 0.00 0.00 0.00 56 1014.4
20260505034641 27 0 0.0 0.0 0.00 0.00 0.00 55 1014.6
20260505033940 27 0 0.0 0.0 0.00 0.00 0.00 54 1014.7
20260505033642 27 0 0.0 0.0 0.00 0.00 0.00 55 1014.7
20260505032640 26 0 0.0 0.0 0.00 0.00 0.00 59 1014.9
20260505031641 26 0 0.0 0.0 0.00 0.00 0.00 59 1015.1
20260505030940 26 0 0.0 0.0 0.00 0.00 0.00 58 1015.1
20260505030641 26 0 0.0 0.0 0.00 0.00 0.00 59 1015.1
20260505025641 25 0 0.0 0.0 0.00 0.00 0.00 60 1015.3
20260505024641 25 0 0.0 0.0 0.00 0.00 0.00 61 1015.4
20260505023940 25 0 0.0 0.0 0.00 0.00 0.00 64 1015.5
20260505023809 25 270 0.0 0.0 0.00 0.00 0.00 64 1015.5
20260505022808 25 0 0.0 0.0 0.00 0.00 0.00 65 1015.7
20260505021808 24 0 0.0 0.0 0.00 0.00 0.00 65 1015.8
20260505020940 24 0 0.0 0.0 0.00 0.00 0.00 65 1015.8
20260505020808 24 0 0.0 0.0 0.00 0.00 0.00 66 1015.8
20260505015809 23 0 0.0 0.0 0.00 0.00 0.00 67 1015.9
20260505014809 23 0 0.0 0.0 0.00 0.00 0.00 68 1016.0
20260505013939 23 0 0.0 0.0 0.00 0.00 0.00 68 1016.0
20260505013808 23 0 0.0 0.0 0.00 0.00 0.00 68 1016.0
20260505012808 23 0 0.0 0.0 0.00 0.00 0.00 69 1015.9
20260505011808 22 0 0.0 0.0 0.00 0.00 0.00 70 1015.9
20260505010940 22 0 0.0 0.0 0.00 0.00 0.00 70 1015.9
20260505010809 22 0 0.0 0.0 0.00 0.00 0.00 69 1015.9
20260505005808 22 315 0.0 0.0 0.00 0.00 0.00 72 1015.9
20260505004808 22 0 0.0 0.0 0.00 0.00 0.00 71 1015.9
20260505003940 22 0 0.0 0.0 0.00 0.00 0.00 71 1015.9
20260505003808 22 0 0.0 0.0 0.00 0.00 0.00 71 1015.9
20260505002807 22 90 0.0 0.0 0.00 0.00 0.00 72 1015.9
20260505001808 21 270 0.0 0.0 0.00 0.00 0.00 72 1015.8
20260505000939 21 0 0.0 0.0 0.00 0.00 0.00 72 1015.8
20260505000808 21 0 0.0 0.0 0.00 0.00 0.00 72 1015.9
20260504235808 21 0 0.0 0.0 0.00 0.00 0.00 73 1015.8
20260504234808 21 270 0.0 0.0 0.00 0.00 0.00 73 1015.8
20260504233939 21 0 0.0 0.0 0.00 0.00 0.00 73 1015.7
20260504233807 21 0 0.0 0.0 0.00 0.00 0.00 73 1015.7
20260504232808 21 0 0.0 0.0 0.00 0.00 0.00 74 1015.7
20260504231807 20 0 0.0 0.0 0.00 0.00 0.00 73 1015.6
20260504230939 20 0 0.0 0.0 0.00 0.00 0.00 74 1015.5
20260504230808 20 0 0.0 0.0 0.00 0.00 0.00 74 1015.5
20260504225808 20 0 0.0 0.0 0.00 0.00 0.00 75 1015.4
20260504224808 20 0 0.0 0.0 0.00 0.00 0.00 75 1015.3
20260504223939 20 0 0.0 0.0 0.00 0.00 0.00 74 1015.3
20260504223808 20 0 0.0 0.0 0.00 0.00 0.00 74 1015.3
20260504222808 20 270 0.0 0.0 0.00 0.00 0.00 75 1015.1
20260504221807 20 0 0.0 0.0 0.00 0.00 0.00 75 1015.0
20260504220939 20 0 0.0 0.0 0.00 0.00 0.00 75 1014.9
20260504220808 20 0 0.0 0.0 0.00 0.00 0.00 75 1014.9
20260504215808 20 0 0.0 0.0 0.00 0.00 0.00 75 1015.0
20260504214807 20 315 0.0 0.0 0.00 0.00 0.00 75 1014.9
20260504213939 20 0 0.0 0.0 0.00 0.00 0.00 75 1014.9
20260504213807 20 0 0.0 0.0 0.00 0.00 0.00 75 1014.9
20260504212807 20 0 0.0 0.0 0.00 0.00 0.00 74 1014.8
20260504211758 20 0 0.0 0.0 0.00 0.00 0.00 74 1014.8
20260504210939 20 0 0.0 0.0 0.00 0.00 0.00 74 1014.8
20260504210807 20 0 0.0 0.0 0.00 0.00 0.00 74 1014.8
20260504205806 20 0 0.0 0.0 0.00 0.00 0.00 74 1014.7
20260504204808 20 270 0.0 0.0 0.00 0.00 0.00 73 1014.6
20260504203939 20 315 0.0 0.0 0.00 0.00 0.00 73 1014.6
20260504203807 20 0 0.0 0.0 0.00 0.00 0.00 73 1014.6
20260504202807 20 0 0.0 0.0 0.00 0.00 0.00 72 1014.6
20260504201807 20 0 0.0 0.0 0.00 0.00 0.00 73 1014.6
20260504200938 20 0 0.0 0.0 0.00 0.00 0.00 73 1014.5
20260504200807 20 0 0.0 0.0 0.00 0.00 0.00 72 1014.5
20260504195807 20 0 0.0 0.0 0.00 0.00 0.00 72 1014.5
20260504194807 20 270 0.0 0.0 0.00 0.00 0.00 72 1014.3
20260504193938 20 270 0.0 0.0 0.00 0.00 0.00 72 1014.2
20260504193806 20 0 0.0 0.0 0.00 0.00 0.00 72 1014.3
20260504192807 20 0 0.0 0.0 0.00 0.00 0.00 72 1014.3
20260504191806 20 315 0.0 0.0 0.00 0.00 0.00 72 1014.4
20260504190938 20 0 0.0 0.0 0.00 0.00 0.00 72 1014.5
20260504190806 20 270 0.0 0.0 0.00 0.00 0.00 72 1014.4
20260504185807 21 0 0.0 0.0 0.00 0.00 0.00 72 1014.4
20260504184806 21 0 0.0 0.0 0.00 0.00 0.00 72 1014.3
20260504184656 21 270 0.0 0.0 0.00 0.00 0.00 73 1014.4
20260504183806 21 270 0.0 0.0 0.00 0.00 0.00 72 1014.4
20260504182807 21 0 0.0 0.0 0.00 0.00 0.00 72 1014.5
20260504181807 21 270 0.0 0.0 0.00 0.00 0.00 72 1014.6
20260504180938 21 0 0.0 0.0 0.00 0.00 0.00 72 1014.6
20260504180807 21 0 0.0 0.0 0.00 0.00 0.00 72 1014.6
20260504175806 21 0 0.0 0.0 0.00 0.00 0.00 72 1014.6
20260504174806 21 315 0.0 0.0 0.00 0.00 0.00 71 1014.6
20260504173938 21 0 0.0 0.0 0.00 0.00 0.00 70 1014.5
20260504173806 21 0 0.0 0.0 0.00 0.00 0.00 70 1014.5
20260504172806 21 0 0.0 0.0 0.00 0.00 0.00 70 1014.5
20260504171807 21 0 0.0 0.0 0.00 0.00 0.00 70 1014.6
20260504170938 21 0 0.0 0.0 0.00 0.00 0.00 70 1014.7
20260504170807 21 0 0.0 0.0 0.00 0.00 0.00 70 1014.7
20260504150937 21 0 0.0 0.0 0.00 0.00 0.00 72 1016.0
20260504150806 21 0 0.0 0.0 0.00 0.00 0.00 72 1016.0
20260504140936 22 0 0.0 0.0 0.00 0.00 0.00 69 1016.4
20260504140805 22 0 0.0 0.0 0.00 0.00 0.00 69 1016.4
20260504130805 22 0 0.0 0.0 0.00 0.00 0.00 65 1016.5